TimeCDT,TemperatureF,Dew PointF,Humidity,Sea Level PressureIn,VisibilityMPH,Wind Direction,Wind SpeedMPH,Gust SpeedMPH,PrecipitationIn,Events,Conditions,WindDirDegrees,DateUTC
12:15 AM,59.0,55.4,88,30.02,4.0,Calm,Calm,-,N/A,,Overcast,0,2012-10-03 05:15:00
12:35 AM,59.0,55.4,88,30.02,2.5,Calm,Calm,-,N/A,,Overcast,0,2012-10-03 05:35:00
12:55 AM,59.0,55.4,88,30.01,1.5,Calm,Calm,-,N/A,,Overcast,0,2012-10-03 05:55:00
1:15 AM,59.0,55.4,88,30.02,5.0,Calm,Calm,-,N/A,,Overcast,0,2012-10-03 06:15:00
1:55 AM,57.2,55.4,94,30.03,5.0,Calm,Calm,-,N/A,,Overcast,0,2012-10-03 06:55:00
2:15 AM,57.2,55.4,94,30.04,4.0,Calm,Calm,-,N/A,,Overcast,0,2012-10-03 07:15:00
2:35 AM,57.2,55.4,94,30.03,4.0,Calm,Calm,-,N/A,,Overcast,0,2012-10-03 07:35:00
2:55 AM,57.2,55.4,94,30.04,3.0,Calm,Calm,-,N/A,,Overcast,0,2012-10-03 07:55:00
3:15 AM,57.2,53.6,88,30.04,4.0,WSW,3.5,-,N/A,,Overcast,240,2012-10-03 08:15:00
3:35 AM,55.4,53.6,94,30.04,4.0,Calm,Calm,-,N/A,,Overcast,0,2012-10-03 08:35:00
3:55 AM,57.2,53.6,88,30.05,3.0,Calm,Calm,-,N/A,,Overcast,0,2012-10-03 08:55:00
4:15 AM,57.2,53.6,88,30.05,3.0,Calm,Calm,-,N/A,,Overcast,0,2012-10-03 09:15:00
4:35 AM,57.2,55.4,94,30.06,4.0,Calm,Calm,-,N/A,,Overcast,0,2012-10-03 09:35:00
4:55 AM,57.2,55.4,94,30.07,4.0,Calm,Calm,-,N/A,,Overcast,0,2012-10-03 09:55:00
5:15 AM,57.2,53.6,88,30.08,5.0,Calm,Calm,-,N/A,,Overcast,0,2012-10-03 10:15:00
5:35 AM,57.2,53.6,88,30.08,5.0,Calm,Calm,-,N/A,,Overcast,0,2012-10-03 10:35:00
5:55 AM,55.4,53.6,94,30.09,4.0,Calm,Calm,-,N/A,,Overcast,0,2012-10-03 10:55:00
6:15 AM,55.4,53.6,94,30.10,5.0,Calm,Calm,-,N/A,,Overcast,0,2012-10-03 11:15:00
6:35 AM,55.4,53.6,94,30.10,4.0,Calm,Calm,-,N/A,,Overcast,0,2012-10-03 11:35:00
6:55 AM,55.4,53.6,94,30.10,3.0,NNW,3.5,-,N/A,,Overcast,330,2012-10-03 11:55:00
7:15 AM,55.4,53.6,94,30.11,2.0,Calm,Calm,-,N/A,,Overcast,0,2012-10-03 12:15:00
7:35 AM,55.4,53.6,94,30.12,3.0,Calm,Calm,-,N/A,,Overcast,0,2012-10-03 12:35:00
7:55 AM,55.4,53.6,94,30.13,2.5,Calm,Calm,-,N/A,,Overcast,0,2012-10-03 12:55:00
8:15 AM,55.4,53.6,94,30.13,2.5,Calm,Calm,-,N/A,,Overcast,0,2012-10-03 13:15:00
8:35 AM,57.2,55.4,94,30.14,4.0,Calm,Calm,-,N/A,,Overcast,0,2012-10-03 13:35:00
8:55 AM,59.0,55.4,88,30.15,5.0,Calm,Calm,-,N/A,,Overcast,0,2012-10-03 13:55:00
9:15 AM,59.0,53.6,82,30.16,7.0,Calm,Calm,-,N/A,,Overcast,0,2012-10-03 14:15:00
9:35 AM,59.0,53.6,82,30.16,7.0,Calm,Calm,-,N/A,,Overcast,0,2012-10-03 14:35:00
9:55 AM,60.8,55.4,82,30.16,10.0,Calm,Calm,-,N/A,,Overcast,0,2012-10-03 14:55:00
10:15 AM,62.6,55.4,77,30.16,10.0,Calm,Calm,-,N/A,,Mostly Cloudy,0,2012-10-03 15:15:00
10:35 AM,62.6,55.4,77,30.16,10.0,Calm,Calm,-,N/A,,Overcast,0,2012-10-03 15:35:00
10:55 AM,64.4,55.4,73,30.16,10.0,Calm,Calm,-,N/A,,Overcast,0,2012-10-03 15:55:00
11:15 AM,66.2,55.4,68,30.16,10.0,West,3.5,-,N/A,,Overcast,260,2012-10-03 16:15:00
11:35 AM,64.4,55.4,73,30.16,10.0,Calm,Calm,-,N/A,,Mostly Cloudy,0,2012-10-03 16:35:00
11:55 AM,66.2,55.4,68,30.15,10.0,SW,3.5,-,N/A,,Clear,230,2012-10-03 16:55:00
12:35 PM,69.8,51.8,53,30.15,10.0,Calm,Calm,-,N/A,,Unknown,0,2012-10-03 17:35:00
12:55 PM,69.8,51.8,53,30.14,10.0,WSW,3.5,-,N/A,,Scattered Clouds,240,2012-10-03 17:55:00
1:15 PM,69.8,51.8,53,30.13,10.0,Calm,Calm,-,N/A,,Clear,0,2012-10-03 18:15:00
1:35 PM,69.8,51.8,53,30.12,10.0,Calm,Calm,-,N/A,,Clear,0,2012-10-03 18:35:00
1:55 PM,69.8,50.0,49,30.13,10.0,Calm,Calm,-,N/A,,Clear,0,2012-10-03 18:55:00
2:15 PM,69.8,51.8,53,30.12,10.0,Calm,Calm,-,N/A,,Scattered Clouds,0,2012-10-03 19:15:00
2:35 PM,69.8,50.0,49,30.11,10.0,Calm,Calm,-,N/A,,Clear,0,2012-10-03 19:35:00
2:55 PM,71.6,50.0,46,30.12,10.0,Calm,Calm,-,N/A,,Clear,0,2012-10-03 19:55:00
3:15 PM,71.6,48.2,43,30.12,10.0,Calm,Calm,-,N/A,,Scattered Clouds,0,2012-10-03 20:15:00
3:35 PM,69.8,50.0,49,30.12,10.0,SSW,3.5,-,N/A,,Scattered Clouds,210,2012-10-03 20:35:00
3:55 PM,69.8,53.6,56,30.12,10.0,Calm,Calm,-,N/A,,Scattered Clouds,0,2012-10-03 20:55:00
4:15 PM,69.8,55.4,60,30.12,10.0,Calm,Calm,-,N/A,,Clear,0,2012-10-03 21:15:00
4:35 PM,69.8,55.4,60,30.13,10.0,SSW,4.6,-,N/A,,Clear,200,2012-10-03 21:35:00
4:55 PM,69.8,55.4,60,30.13,10.0,Calm,Calm,-,N/A,,Clear,0,2012-10-03 21:55:00
5:15 PM,68.0,55.4,64,30.13,10.0,Calm,Calm,-,N/A,,Clear,0,2012-10-03 22:15:00
5:35 PM,68.0,55.4,64,30.14,10.0,Calm,Calm,-,N/A,,Clear,0,2012-10-03 22:35:00
5:55 PM,68.0,55.4,64,30.14,10.0,South,3.5,-,N/A,,Clear,170,2012-10-03 22:55:00
6:15 PM,66.2,55.4,68,30.14,10.0,Calm,Calm,-,N/A,,Clear,0,2012-10-03 23:15:00
6:35 PM,64.4,55.4,73,30.15,10.0,Calm,Calm,-,N/A,,Clear,0,2012-10-03 23:35:00
6:55 PM,62.6,57.2,82,30.15,10.0,Calm,Calm,-,N/A,,Clear,0,2012-10-03 23:55:00
7:15 PM,60.8,55.4,82,30.16,10.0,Calm,Calm,-,N/A,,Clear,0,2012-10-04 00:15:00
7:35 PM,60.8,55.4,82,30.16,10.0,Calm,Calm,-,N/A,,Clear,0,2012-10-04 00:35:00
7:55 PM,59.0,55.4,88,30.17,10.0,Calm,Calm,-,N/A,,Clear,0,2012-10-04 00:55:00
8:15 PM,59.0,55.4,88,30.17,7.0,Calm,Calm,-,N/A,,Clear,0,2012-10-04 01:15:00
8:35 PM,59.0,55.4,88,30.18,7.0,Calm,Calm,-,N/A,,Clear,0,2012-10-04 01:35:00
8:55 PM,57.2,53.6,88,30.18,5.0,Calm,Calm,-,N/A,,Clear,0,2012-10-04 01:55:00
9:15 PM,55.4,53.6,94,30.19,5.0,Calm,Calm,-,N/A,,Clear,0,2012-10-04 02:15:00
9:35 PM,55.4,53.6,94,30.19,5.0,Calm,Calm,-,N/A,,Clear,0,2012-10-04 02:35:00
9:55 PM,55.4,53.6,94,30.20,4.0,Calm,Calm,-,N/A,,Clear,0,2012-10-04 02:55:00
10:15 PM,55.4,51.8,88,30.20,4.0,Calm,Calm,-,N/A,,Clear,0,2012-10-04 03:15:00
10:35 PM,53.6,51.8,94,30.21,5.0,Calm,Calm,-,N/A,,Clear,0,2012-10-04 03:35:00
10:55 PM,53.6,51.8,94,30.21,5.0,Calm,Calm,-,N/A,,Scattered Clouds,0,2012-10-04 03:55:00
11:15 PM,53.6,51.8,94,30.21,1.5,Calm,Calm,-,N/A,,Mostly Cloudy,0,2012-10-04 04:15:00
11:35 PM,53.6,51.8,94,30.21,0.5,Calm,Calm,-,N/A,Fog,Fog,0,2012-10-04 04:35:00
11:55 PM,53.6,51.8,94,30.21,0.2,Calm,Calm,-,N/A,Fog,Fog,0,2012-10-04 04:55:00